GLOBALSTAR M056 [P]

Last updated on May 4, 2016, 3:39 p.m. UTC

1 25945U 99058C   16125.53463287 -.00000114  00000-0 -31195-3 0  9999
2 25945  51.9970 304.3783 0002030  70.4821  37.2247 12.04706468761235
UTC
Height (km)
Latitude
Longitude
Inclination
Orbital Period
UTC large
Height (km)
Speed (km/s)
/
Latitude / Longitude
Inclination (degrees)
Orbital Period (minutes)
Azimuth
Elevation
Range (km)
Doppler Factor
iOS Compass Heading
iOS Angle